BIPCOM Weather Reports


Display with metric or nautical units.
time (UTC)temp
F
wind
direction
speed
MPH
gust
MPH
rain 1hr
in
rain 24hr
in
rain mn
in
humidity
%
barometer
mb
20260507112555 54 159 8.0 15.0 0.00 0.00 0.00 82 1014.5
20260507112050 54 160 10.0 15.0 0.00 0.00 0.00 82 1014.5
20260507111536 54 148 9.0 14.0 0.00 0.00 0.00 82 1014.5
20260507111025 54 148 9.0 14.0 0.00 0.00 0.00 81 1014.6
20260507110515 54 152 10.0 12.0 0.00 0.00 0.00 81 1014.5
20260507110005 54 144 9.0 12.0 0.00 0.00 0.00 81 1014.6
20260507105556 54 146 9.0 14.0 0.00 0.00 0.00 81 1014.6
20260507105049 54 144 11.0 14.0 0.00 0.00 0.00 82 1014.6
20260507104537 54 155 10.0 14.0 0.00 0.00 0.00 81 1014.6
20260507104016 54 156 9.0 15.0 0.00 0.00 0.00 83 1014.6
20260507103505 54 142 11.0 15.0 0.00 0.00 0.00 82 1014.5
20260507103058 54 141 12.0 14.0 0.00 0.00 0.00 82 1014.5
20260507102546 54 153 11.0 14.0 0.00 0.00 0.00 83 1014.5
20260507102036 54 160 12.0 15.0 0.00 0.00 0.00 83 1014.5
20260507101534 54 142 13.0 15.0 0.00 0.00 0.00 83 1014.5
20260507101017 54 139 13.0 15.0 0.00 0.00 0.00 83 1014.4
20260507100506 54 145 13.0 15.0 0.00 0.00 0.00 83 1014.5
20260507100058 54 162 11.0 16.0 0.00 0.00 0.00 83 1014.5
20260507095550 53 148 12.0 17.0 0.00 0.00 0.00 83 1014.5
20260507095038 53 146 13.0 17.0 0.00 0.00 0.00 83 1014.5
20260507094534 53 147 14.0 17.0 0.00 0.00 0.00 83 1014.5
20260507094012 53 140 14.0 16.0 0.00 0.00 0.00 83 1014.4
20260507093558 53 148 13.0 16.0 0.00 0.00 0.00 83 1014.4
20260507093048 53 142 12.0 16.0 0.00 0.00 0.00 83 1014.4
20260507092538 53 139 13.0 15.0 0.00 0.00 0.00 83 1014.4
20260507092028 53 132 13.0 15.0 0.00 0.00 0.00 83 1014.3
20260507091520 53 143 12.0 15.0 0.00 0.00 0.00 83 1014.3
20260507091008 53 148 11.0 16.0 0.00 0.00 0.00 83 1014.3
20260507090600 53 149 12.0 16.0 0.00 0.00 0.00 83 1014.3
20260507090046 53 142 12.0 16.0 0.00 0.00 0.00 82 1014.3
20260507085536 53 153 12.0 15.0 0.00 0.00 0.00 82 1014.4
20260507085026 53 150 11.0 16.0 0.00 0.00 0.00 82 1014.3
20260507084519 53 149 12.0 17.0 0.00 0.00 0.00 82 1014.4
20260507084107 53 136 15.0 17.0 0.00 0.00 0.00 82 1014.3
20260507083546 53 145 11.0 16.0 0.00 0.00 0.00 82 1014.4
20260507083036 53 153 12.0 16.0 0.00 0.00 0.00 82 1014.4
20260507082527 53 148 12.0 16.0 0.00 0.00 0.00 82 1014.4
20260507082016 53 146 11.0 15.0 0.00 0.00 0.00 82 1014.4
20260507081506 53 143 12.0 17.0 0.00 0.00 0.00 82 1014.3
20260507081102 53 143 13.0 17.0 0.00 0.00 0.00 82 1014.3
20260507080548 53 145 13.0 17.0 0.00 0.00 0.00 82 1014.2
20260507080039 53 140 13.0 17.0 0.00 0.00 0.00 82 1014.3
20260507075527 52 142 13.0 17.0 0.00 0.00 0.00 83 1014.3
20260507075017 52 148 13.0 16.0 0.00 0.00 0.00 84 1014.3
20260507074504 52 137 13.0 16.0 0.00 0.00 0.00 85 1014.3
20260507074055 52 120 12.0 15.0 0.00 0.00 0.00 87 1014.3
20260507073535 52 120 13.0 16.0 0.00 0.00 0.00 87 1014.2
20260507073024 52 132 13.0 16.0 0.00 0.00 0.00 87 1014.3
20260507072514 52 128 11.0 13.0 0.00 0.00 0.00 87 1014.3
20260507072004 52 125 9.0 13.0 0.00 0.00 0.00 87 1014.3
20260507071555 52 120 10.0 13.0 0.00 0.00 0.00 87 1014.3
20260507071045 52 117 10.0 13.0 0.00 0.00 0.00 86 1014.3
20260507070535 52 123 11.0 13.0 0.00 0.00 0.00 87 1014.2
20260507070038 52 112 10.0 13.0 0.00 0.00 0.00 86 1014.2
20260507065514 52 114 10.0 13.0 0.00 0.00 0.00 86 1014.2
20260507065006 52 119 10.0 13.0 0.00 0.00 0.00 86 1014.2
20260507064559 52 109 10.0 13.0 0.00 0.00 0.00 86 1014.2
20260507064047 52 112 11.0 13.0 0.00 0.00 0.00 86 1014.1
20260507063526 51 111 10.0 13.0 0.00 0.00 0.00 87 1014.1
20260507063015 51 112 9.0 12.0 0.00 0.00 0.00 87 1014.1
20260507062505 51 101 8.0 10.0 0.00 0.00 0.00 88 1014.0
20260507062057 51 90 8.0 10.0 0.00 0.00 0.00 87 1014.1
20260507061547 50 76 7.0 11.0 0.00 0.00 0.00 88 1014.1
20260507061036 50 82 9.0 11.0 0.00 0.00 0.00 87 1014.0
20260507060526 50 76 7.0 11.0 0.00 0.00 0.00 87 1014.1
20260507060020 50 79 8.0 11.0 0.00 0.00 0.00 86 1014.0
20260507055507 50 67 9.0 12.0 0.00 0.00 0.00 86 1013.9
20260507055101 50 65 9.0 12.0 0.00 0.00 0.00 86 1013.9
20260507054548 50 75 9.0 11.0 0.00 0.00 0.00 86 1013.9
20260507054038 50 72 8.0 11.0 0.00 0.00 0.00 86 1013.8
20260507053517 50 69 8.0 12.0 0.00 0.00 0.00 86 1013.8
20260507053006 50 73 9.0 12.0 0.00 0.00 0.00 86 1013.8
20260507052557 50 64 9.0 12.0 0.00 0.00 0.00 86 1013.7
20260507052047 49 56 10.0 13.0 0.00 0.00 0.00 85 1013.7
20260507051537 49 58 11.0 12.0 0.00 0.00 0.00 85 1013.7
20260507051026 50 60 10.0 13.0 0.00 0.00 0.00 85 1013.7
20260507050516 50 61 9.0 12.0 0.00 0.00 0.00 84 1013.7
20260507050015 50 64 9.0 12.0 0.00 0.00 0.00 84 1013.7
20260507045600 49 60 8.0 13.0 0.00 0.00 0.00 84 1013.7
20260507045048 50 55 10.0 13.0 0.00 0.00 0.00 84 1013.6
20260507044551 50 65 10.0 13.0 0.00 0.00 0.00 84 1013.6
20260507044029 50 60 10.0 13.0 0.00 0.00 0.00 83 1013.6
20260507043505 50 58 10.0 13.0 0.00 0.00 0.00 83 1013.5
20260507043058 50 52 10.0 13.0 0.00 0.00 0.00 84 1013.5
20260507042548 50 58 10.0 13.0 0.00 0.00 0.00 83 1013.5
20260507042037 50 40 11.0 13.0 0.00 0.00 0.00 83 1013.5
20260507041527 50 59 11.0 13.0 0.00 0.00 0.00 83 1013.5
20260507041019 50 53 11.0 13.0 0.00 0.00 0.00 83 1013.5
20260507040507 50 47 11.0 13.0 0.00 0.00 0.00 83 1013.5
20260507040105 50 55 10.0 13.0 0.00 0.00 0.00 82 1013.5
20260507035548 50 52 10.0 13.0 0.00 0.00 0.00 82 1013.5
20260507035038 50 58 10.0 13.0 0.00 0.00 0.00 83 1013.5
20260507034530 50 53 10.0 13.0 0.00 0.00 0.00 83 1013.4
20260507034006 50 44 10.0 13.0 0.00 0.00 0.00 82 1013.4
20260507033558 50 40 10.0 13.0 0.00 0.00 0.00 82 1013.4
20260507033100 50 55 10.0 12.0 0.00 0.00 0.00 82 1013.4
20260507032537 50 43 9.0 11.0 0.00 0.00 0.00 81 1013.4
20260507032038 50 41 9.0 12.0 0.00 0.00 0.00 81 1013.4
20260507031519 50 38 9.0 12.0 0.00 0.00 0.00 81 1013.4
20260507031011 50 35 10.0 12.0 0.00 0.00 0.00 81 1013.4
20260507030559 50 48 9.0 12.0 0.00 0.00 0.00 80 1013.4
20260507030106 50 36 9.0 12.0 0.00 0.00 0.00 80 1013.4
20260507025539 50 49 10.0 12.0 0.00 0.00 0.00 80 1013.3
20260507025028 50 41 10.0 13.0 0.00 0.00 0.00 79 1013.2
20260507024521 50 35 11.0 13.0 0.00 0.00 0.00 79 1013.2
20260507024111 51 46 11.0 13.0 0.00 0.00 0.00 79 1013.2
20260507023549 51 37 10.0 14.0 0.00 0.00 0.00 79 1013.2
20260507023039 51 38 11.0 14.0 0.00 0.00 0.00 79 1013.2
20260507022529 52 58 10.0 14.0 0.00 0.00 0.00 79 1013.2
20260507022019 51 54 11.0 14.0 0.00 0.00 0.00 78 1013.2
20260507021508 52 57 10.0 15.0 0.00 0.00 0.00 78 1013.2
20260507021104 52 57 10.0 15.0 0.00 0.00 0.00 78 1013.2
20260507020551 52 67 12.0 14.0 0.00 0.00 0.00 78 1013.2
20260507020053 52 69 12.0 15.0 0.00 0.00 0.00 77 1013.1
20260507015529 52 63 11.0 15.0 0.00 0.00 0.00 77 1013.1
20260507015021 52 62 12.0 14.0 0.00 0.00 0.00 77 1013.1
20260507014510 52 66 10.0 14.0 0.00 0.00 0.00 77 1013.1
20260507014102 52 59 11.0 14.0 0.00 0.00 0.00 77 1013.1
20260507013543 52 80 12.0 14.0 0.00 0.00 0.00 76 1013.1
20260507013036 52 70 11.0 15.0 0.00 0.00 0.00 77 1013.0
20260507012523 53 69 12.0 14.0 0.00 0.00 0.00 76 1013.0
20260507012011 52 71 12.0 15.0 0.00 0.00 0.00 76 1013.0
20260507011602 53 71 12.0 15.0 0.00 0.00 0.00 76 1013.1
20260507011048 52 64 12.0 16.0 0.00 0.00 0.00 75 1013.1
20260507010537 52 70 13.0 16.0 0.00 0.00 0.00 75 1013.1
20260507010034 52 66 13.0 16.0 0.00 0.00 0.00 75 1013.1
20260507005517 53 68 12.0 16.0 0.00 0.00 0.00 75 1013.1
20260507005010 53 67 14.0 16.0 0.00 0.00 0.00 74 1013.0
20260507004559 53 73 14.0 16.0 0.00 0.00 0.00 74 1013.0
20260507004049 53 71 12.0 16.0 0.00 0.00 0.00 74 1013.0
20260507003527 53 68 12.0 16.0 0.00 0.00 0.00 74 1013.1
20260507003018 53 71 13.0 16.0 0.00 0.00 0.00 74 1013.1
20260507002507 53 69 13.0 16.0 0.00 0.00 0.00 73 1013.1
20260507002059 53 76 13.0 16.0 0.00 0.00 0.00 73 1013.1
20260507001546 53 71 13.0 16.0 0.00 0.00 0.00 74 1013.1
20260507001036 53 82 13.0 16.0 0.00 0.00 0.00 73 1013.1
20260507000526 53 71 11.0 14.0 0.00 0.00 0.00 74 1013.2
20260507000016 53 59 7.0 10.0 0.00 0.00 0.00 74 1013.2
20260506235507 53 54 7.0 10.0 0.00 0.00 0.00 75 1013.2
20260506235058 53 41 7.0 10.0 0.00 0.00 0.00 75 1013.2
20260506234555 53 13 7.0 9.0 0.00 0.00 0.00 75 1013.2
20260506234037 52 21 8.0 9.0 0.00 0.00 0.00 75 1013.1
20260506233516 52 341 5.0 8.0 0.00 0.00 0.00 75 1013.1
20260506233006 52 309 3.0 8.0 0.00 0.00 0.00 75 1013.1
20260506232558 52 313 4.0 8.0 0.00 0.00 0.00 75 1013.1
20260506232048 52 332 4.0 8.0 0.00 0.00 0.00 75 1013.1
20260506231537 52 302 4.0 8.0 0.00 0.00 0.00 75 1013.1
20260506231027 52 323 4.0 8.0 0.00 0.00 0.00 75 1013.2
20260506230517 52 300 4.0 8.0 0.00 0.00 0.00 75 1013.2
20260506230008 52 302 4.0 9.0 0.00 0.00 0.00 75 1013.1
20260506225601 52 309 5.0 9.0 0.00 0.00 0.00 75 1013.1
20260506225049 52 295 6.0 9.0 0.00 0.00 0.00 75 1013.1
20260506224541 52 322 5.0 8.0 0.00 0.00 0.00 75 1013.1
20260506224017 52 298 5.0 8.0 0.00 0.00 0.00 75 1013.0
20260506223507 52 301 6.0 9.0 0.00 0.00 0.00 75 1013.0
20260506223100 52 321 4.0 9.0 0.00 0.00 0.00 75 1013.1
20260506222552 52 297 5.0 9.0 0.00 0.00 0.00 74 1013.1
20260506222042 52 300 5.0 9.0 0.00 0.00 0.00 74 1013.0
20260506221528 52 303 5.0 10.0 0.00 0.00 0.00 74 1013.0
20260506221018 52 265 6.0 12.0 0.00 0.00 0.00 74 1013.0
20260506220508 52 296 7.0 12.0 0.00 0.00 0.00 74 1013.0
20260506215549 52 296 7.0 11.0 0.00 0.00 0.00 74 1012.9
20260506215039 51 297 8.0 11.0 0.00 0.00 0.00 75 1012.9
20260506214530 51 281 7.0 11.0 0.00 0.00 0.00 76 1012.9
20260506214010 52 326 6.0 11.0 0.00 0.00 0.00 76 1012.9
20260506213600 52 315 6.0 11.0 0.00 0.00 0.00 76 1012.9
20260506213050 52 291 7.0 11.0 0.00 0.00 0.00 76 1012.9
20260506212540 52 300 6.0 10.0 0.00 0.00 0.00 76 1013.0
20260506212030 52 285 6.0 10.0 0.00 0.00 0.00 76 1013.0
20260506211522 52 278 5.0 10.0 0.00 0.00 0.00 76 1012.9
20260506211009 52 279 6.0 10.0 0.00 0.00 0.00 76 1012.9
20260506210606 52 302 6.0 11.0 0.00 0.00 0.00 76 1012.9
20260506210052 52 304 6.0 11.0 0.00 0.00 0.00 75 1012.8
20260506205541 53 311 6.0 9.0 0.00 0.00 0.00 75 1012.8
20260506205031 52 299 4.0 10.0 0.00 0.00 0.00 75 1012.7
20260506204521 52 275 4.0 10.0 0.00 0.00 0.00 74 1012.7
20260506204116 52 309 5.0 10.0 0.00 0.00 0.00 74 1012.7
20260506203551 52 257 6.0 11.0 0.00 0.00 0.00 74 1012.7
20260506203042 52 293 8.0 11.0 0.00 0.00 0.00 75 1012.7
20260506202531 52 288 6.0 11.0 0.00 0.00 0.00 75 1012.6
20260506202021 52 292 5.0 11.0 0.00 0.00 0.00 75 1012.5
20260506201511 53 302 6.0 11.0 0.00 0.00 0.00 75 1012.5
20260506201103 53 327 8.0 11.0 0.00 0.00 0.00 75 1012.4
20260506200553 53 309 5.0 10.0 0.00 0.00 0.00 75 1012.4
20260506200042 53 285 5.0 9.0 0.00 0.00 0.00 75 1012.3
20260506195536 53 275 5.0 9.0 0.00 0.00 0.00 75 1012.4
20260506195022 53 290 7.0 12.0 0.00 0.00 0.00 75 1012.3
20260506194511 53 300 5.0 13.0 0.00 0.00 0.00 74 1012.3
20260506194103 53 279 7.0 13.0 0.00 0.00 0.00 74 1012.3
20260506193546 53 272 6.0 10.0 0.00 0.00 0.00 73 1012.2
20260506193032 53 292 8.0 10.0 0.00 0.00 0.00 73 1012.1
20260506192522 53 267 5.0 10.0 0.00 0.00 0.00 73 1012.2
20260506192017 53 288 7.0 11.0 0.00 0.00 0.00 72 1012.2
20260506191502 53 274 6.0 11.0 0.00 0.00 0.00 71 1012.1
20260506191054 53 269 8.0 13.0 0.00 0.00 0.00 71 1012.1
20260506190544 53 261 7.0 13.0 0.00 0.00 0.00 71 1012.1
20260506190039 53 267 8.0 12.0 0.00 0.00 0.00 72 1012.1
20260506185523 53 279 8.0 12.0 0.00 0.00 0.00 72 1012.1
20260506185013 53 287 8.0 12.0 0.00 0.00 0.00 72 1012.1
20260506184503 53 268 8.0 11.0 0.00 0.00 0.00 72 1012.0
20260506184055 53 274 7.0 12.0 0.00 0.00 0.00 72 1012.0
20260506183533 53 243 8.0 12.0 0.00 0.00 0.00 72 1012.0
20260506183021 54 270 8.0 12.0 0.00 0.00 0.00 71 1012.0
20260506182510 54 275 8.0 12.0 0.00 0.00 0.00 70 1011.9
20260506182103 54 287 6.0 12.0 0.00 0.00 0.00 70 1011.9
20260506181552 54 286 7.0 15.0 0.00 0.00 0.00 70 1011.9
20260506181042 54 290 8.0 15.0 0.00 0.00 0.00 70 1011.9
20260506180532 54 267 7.0 14.0 0.00 0.00 0.00 69 1011.8
20260506180026 54 286 8.0 13.0 0.00 0.00 0.00 69 1011.8
20260506175513 54 265 7.0 12.0 0.00 0.00 0.00 70 1011.7
20260506175001 54 269 7.0 13.0 0.00 0.00 0.00 71 1011.6
20260506174555 54 292 7.0 13.0 0.00 0.00 0.00 72 1011.6
20260506174043 54 270 7.0 12.0 0.00 0.00 0.00 71 1011.6
20260506173524 54 279 5.0 11.0 0.00 0.00 0.00 71 1011.6
20260506173017 54 240 4.0 11.0 0.00 0.00 0.00 71 1011.5
20260506172501 54 264 7.0 11.0 0.00 0.00 0.00 70 1011.5
20260506172055 55 271 6.0 12.0 0.00 0.00 0.00 70 1011.5
20260506171542 55 252 6.0 12.0 0.00 0.00 0.00 70 1011.5
20260506171033 55 265 5.0 12.0 0.00 0.00 0.00 70 1011.5
20260506170523 55 290 8.0 12.0 0.00 0.00 0.00 69 1011.5
20260506170013 55 258 8.0 12.0 0.00 0.00 0.00 68 1011.5
20260506165502 55 281 6.0 11.0 0.00 0.00 0.00 69 1011.5
20260506165054 55 253 5.0 12.0 0.00 0.00 0.00 68 1011.5
20260506164553 55 258 8.0 12.0 0.00 0.00 0.00 67 1011.5
20260506164034 55 250 8.0 13.0 0.00 0.00 0.00 67 1011.5
20260506163509 55 254 9.0 13.0 0.00 0.00 0.00 68 1011.5
20260506163107 55 275 7.0 13.0 0.00 0.00 0.00 69 1011.5
20260506162551 55 251 9.0 13.0 0.00 0.00 0.00 69 1011.5
20260506162041 55 277 6.0 13.0 0.00 0.00 0.00 71 1011.5
20260506161531 55 264 7.0 12.0 0.00 0.00 0.00 71 1011.5
20260506161021 55 228 6.0 14.0 0.00 0.00 0.00 72 1011.5
20260506160513 55 254 9.0 16.0 0.00 0.00 0.00 72 1011.5
20260506160001 55 265 7.0 16.0 0.00 0.00 0.00 72 1011.5
20260506155552 55 221 7.0 16.0 0.00 0.00 0.00 71 1011.5
20260506155043 55 221 9.0 14.0 0.00 0.00 0.00 71 1011.5
20260506154532 55 248 6.0 17.0 0.00 0.00 0.00 71 1011.7
20260506154013 55 215 7.0 18.0 0.00 0.00 0.00 70 1011.6
20260506153502 55 264 10.0 18.0 0.00 0.00 0.00 67 1011.5
20260506153058 56 201 10.0 16.0 0.00 0.00 0.00 65 1011.6
20260506152542 56 234 9.0 15.0 0.00 0.00 0.00 63 1011.6
20260506152032 56 192 6.0 13.0 0.00 0.00 0.00 62 1011.6
20260506151525 56 215 8.0 15.0 0.00 0.00 0.00 63 1011.6
20260506151016 56 229 7.0 15.0 0.00 0.00 0.00 65 1011.7
20260506150502 55 223 10.0 15.0 0.00 0.00 0.00 64 1011.7
20260506150056 56 213 7.0 13.0 0.00 0.00 0.00 66 1011.7
20260506145544 56 242 6.0 15.0 0.00 0.00 0.00 68 1011.7
20260506145037 56 259 7.0 14.0 0.00 0.00 0.00 68 1011.8
20260506144527 56 223 8.0 16.0 0.00 0.00 0.00 67 1011.7
20260506144002 56 207 7.0 16.0 0.00 0.00 0.00 66 1011.8
20260506143554 56 227 7.0 15.0 0.00 0.00 0.00 67 1011.7
20260506143045 56 244 6.0 16.0 0.00 0.00 0.00 68 1011.8
20260506142534 56 242 9.0 16.0 0.00 0.00 0.00 69 1011.8
20260506142023 56 291 8.0 15.0 0.00 0.00 0.00 69 1011.9
20260506141513 56 227 6.0 13.0 0.00 0.00 0.00 69 1011.9
20260506141006 56 219 7.0 14.0 0.00 0.00 0.00 68 1011.9
20260506140555 55 214 6.0 17.0 0.00 0.00 0.00 68 1011.9
20260506140046 56 211 11.0 17.0 0.00 0.00 0.00 66 1011.9
20260506135536 56 209 8.0 15.0 0.00 0.00 0.00 69 1012.0
20260506135024 56 229 9.0 14.0 0.00 0.00 0.00 69 1011.9
20260506134514 55 247 8.0 18.0 0.00 0.00 0.00 70 1011.9
20260506134107 55 199 8.0 18.0 0.00 0.00 0.00 68 1011.9
20260506133546 54 243 9.0 14.0 0.00 0.00 0.00 70 1011.9
20260506133035 55 200 10.0 13.0 0.00 0.00 0.00 68 1011.9
20260506132528 55 193 7.0 15.0 0.00 0.00 0.00 65 1012.0
20260506132015 55 209 10.0 15.0 0.00 0.00 0.00 69 1011.9
20260506131506 56 195 9.0 12.0 0.00 0.00 0.00 68 1011.9
20260506131057 56 194 6.0 9.0 0.00 0.00 0.00 67 1011.9
20260506130546 56 178 5.0 7.0 0.00 0.00 0.00 68 1011.8
20260506130051 55 178 4.0 7.0 0.00 0.00 0.00 69 1011.9
20260506125528 55 155 4.0 7.0 0.00 0.00 0.00 68 1011.8
20260506125014 55 163 4.0 6.0 0.00 0.00 0.00 67 1011.9
20260506124504 55 173 4.0 7.0 0.00 0.00 0.00 67 1011.8
20260506124058 56 174 3.0 6.0 0.00 0.00 0.00 66 1011.8
20260506123535 56 196 4.0 6.0 0.00 0.00 0.00 67 1011.8
20260506123025 56 196 3.0 5.0 0.00 0.00 0.00 68 1011.8
20260506122515 56 193 4.0 5.0 0.00 0.00 0.00 70 1011.8
20260506122003 55 213 3.0 5.0 0.00 0.00 0.00 70 1011.8
20260506121556 55 140 3.0 5.0 0.00 0.00 0.00 69 1011.9
20260506121045 55 140 3.0 4.0 0.00 0.00 0.00 71 1011.9
20260506120535 55 140 2.0 4.0 0.00 0.00 0.00 71 1012.0
20260506120027 54 140 2.0 4.0 0.00 0.00 0.00 72 1012.0
20260506115518 54 140 2.0 4.0 0.00 0.00 0.00 72 1012.0
20260506115005 54 140 2.0 3.0 0.00 0.00 0.00 72 1012.0
20260506114556 54 140 1.0 4.0 0.00 0.00 0.00 72 1012.0
20260506114046 53 138 3.0 4.0 0.00 0.00 0.00 72 1012.1
20260506113525 53 113 2.0 6.0 0.00 0.00 0.00 72 1012.1
20260506113015 53 113 3.0 6.0 0.00 0.00 0.00 72 1012.1